Regional Weather Roundup
Issued by NWS Grand Forks, ND

Home | Current Version | Previous Version | Graphics & Text | Print | Product List | Glossary On
Versions: 1 2 3 4 5 6 7 8 9 10 11 12 13 14 15 16 17 18 19 20 21 22 23 24 25 26 27 28 29 30 31 32 33 34 35 36 37 38 39 40 41 42 43 44 45 46 47 48 49 50
000
ASUS43 KFGF 071231
RWRFGF
PRAIRIE TO PINES  WEATHER ROUNDUP
NATIONAL WEATHER SERVICE EASTERN NORTH DAKOTA/GRAND FORKS ND
600 AM CST WED DEC 07 2016

 **SATELLITE DATA USED TO AUGMENT SKY COVER AT AUTOMATED STATIONS**
 *****  WEATHER ACROSS EASTERN NORTH DAKOTA  *****

CITY           SKY/WX    TMP DP  RH WIND       PRES   REMARKS
GRAND FORKS    LGT SNOW  15  10  80 NW24G35   29.86R BLWGSNOWWCI  -4
6HR MIN TEMP:  15; 6HR MAX TEMP:  17; 6HR PCP:  0.03;

GRAND FRKS AFB LGT SNOW  14   9  79 NW25G33   29.88R WCI  -5
GRAND FRKS NWS   N/A     14 N/A N/A NW16        N/A  WCI  -2
DEVILS LAKE    LGT SNOW   9   5  84 NW31G38   29.92R FOG     WCI -14
6HR MIN TEMP:   8; 6HR MAX TEMP:   9; 6HR PCP: TRACE;

FARGO          MOCLDY    13   6  74 W24G33    29.94R WCI  -7
WAHPETON ARPT  CLOUDY    12   7  79 W25       30.00R WCI  -8
$$

 ***** WEATHER ACROSS CENTRAL AND WESTERN NORTH DAKOTA  *****

CITY           SKY/WX    TMP DP  RH WIND       PRES   REMARKS
BISMARCK       CLOUDY     6   1  80 NW21G36   30.17R WCI -14
6HR MIN TEMP:   4; 6HR MAX TEMP:   6; 6HR PCP:  0.01;

MINOT          LGT SNOW   5   0  79 W35G45    30.09R WCI -20
6HR MIN TEMP:   4; 6HR MAX TEMP:   7; 6HR PCP: TRACE;

JAMESTOWN      MIX PCPN   8   3  80 NW28G38   29.99R WCI -14
6HR MIN TEMP:   7; 6HR MAX TEMP:   9; 6HR PCP: TRACE;

MINOT AFB      LGT SNOW   3   0  85 NW37G43   30.10R VSB 3/4 WCI -24
GARRISON         N/A      4  -1  80 NW36G46   30.12R WCI -22
WILLISTON      MOCLDY    -1  -8  72 W13       30.30R WCI -19
6HR MIN TEMP:  -1; 6HR MAX TEMP:   4; 6HR PCP: TRACE;

DICKINSON      MIX PCPN   2  -4  76 NW24G33   30.17R WCI -21
6HR MIN TEMP:  -1; 6HR MAX TEMP:   2; 6HR PCP: TRACE;

HETTINGER      CLOUDY     2  -4  76 NW26      30.19R WCI -22
6HR MIN TEMP:  -1; 6HR MAX TEMP:   2;

$$

 *****  OTHER AIRPORT OBSERVATIONS IN OUR AREA  *****

CITY           SKY/WX    TMP DP  RH WIND       PRES   REMARKS
WALHALLA       LGT SNOW  14  14 100 NW24G33   29.85R WCI  -5
GRAFTON AIRPOR FAIR      16  12  86 NW30G39   29.86R WCI  -4
VALLEY CITY AR LGT SNOW   9   7  92 NW35G41   29.98R WCI -15
CANDO          CLOUDY    10   5  79 NW24G32   29.96R WCI -10
CAVALIER APRT  LGT SNOW  16  10  79 NW29G38   29.84R WCI  -4
GWINNER        CLOUDY    14   9  79 W28G37    30.04R WCI  -6
SHEYENNE NWR     N/A     11   3  71 NW15      29.95S WCI  -5
ROLLA          SNOW       9   7  92 NW36G46   29.91R VSB 1/2 WCI -16
 ***** THE ABOVE OBSERVATIONS ARE NON NWS ARE NOT QUALITY
       CONTROLLED AND MAY MIS-REPORT RAIN FOR SNOW...
$$

  *****  WEATHER ACROSS NORTHERN MINNESOTA  *****

CITY           SKY/WX    TMP DP  RH WIND       PRES   REMARKS
FLAG ISLAND    CLOUDY    25  21  86 NW17      29.60R WCI  11
WARROAD        CLOUDY    21  18  86 W9        29.64R FOG     WCI  11
ROSEAU         CLOUDY    21  16  79 W16G25    29.68R WCI   7
HALLOCK        LGT SNOW  18  16  93 NW29      29.78R WCI  -2
THF RVR FALLS  LGT SNOW  14  11  87 W24G31    29.78R FOG     WCI  -5
6HR MIN TEMP:  14; 6HR MAX TEMP:  17; 6HR PCP: TRACE;

BAUDETTE       CLOUDY    21  17  84 W15G26    29.59R WCI   8
6HR MIN TEMP:  21; 6HR MAX TEMP:  24; 6HR PCP: TRACE;

WASKISH        LGT SNOW  19  18  93 W25G33    29.66R WCI   2
CROOKSTON      CLOUDY    16  12  86 NW29      29.85R FOG     WCI  -4
STEPHEN NDAWN    N/A     16  14  93 NW25        N/A  WCI  -3
GREENBUSH NDAW   N/A     18  16  93 W22         N/A  WCI   0
$$
  *****  WEATHER ACROSS CENTRAL AND WEST MINNESOTA  *****

CITY           SKY/WX    TMP DP  RH WIND       PRES   REMARKS
FOSSTON        LGT SNOW  12  10  92 W20G29    29.80R WCI  -6
BEMIDJI        LGT SNOW  14  10  85 W21G30    29.73R WCI  -4
PARK RAPIDS    LGT SNOW  13   6  74 W21       29.79R WCI  -5
6HR MIN TEMP:  13; 6HR MAX TEMP:  15; 6HR PCP: TRACE;

ELBOW LAKE     LGT SNOW  11   7  84 NW25G35   29.98R WCI -10
WADENA         MIX PCPN  10   7  85 W15       29.86R WCI  -6
DETROIT LAKES  LGT SNOW  12  10  92 W17G30    29.87R WCI  -5
MOORHEAD       CLOUDY    12   7  79 W25G31    29.94R WCI  -8
FERGUS FALLS   CLOUDY    10   7  85 W24G32    30.01R FOG     WCI -10
MORRIS MN      LGT SNOW  12   7  79 W29G37    29.99R WCI  -9
STAPLES        FLURRIES  10   7  85 W17G25    29.86R WCI  -7
$$
  *****  WEATHER ELSEWHERE ACROSS MINNESOTA  *****

CITY           SKY/WX    TMP DP  RH WIND       PRES   REMARKS
DULUTH         LGT SNOW  15  11  83 W21G30    29.65R FOG     WCI  -2
6HR MIN TEMP:  15; 6HR MAX TEMP:  20; 6HR PCP: TRACE;

INTRNTL FALLS  SNOW      22  19  89 W10       29.57R VSB 1/2 WCI  11
6HR MIN TEMP:  19; 6HR MAX TEMP:  24; 6HR PCP:  0.12;

ELY            LGT SNOW  19  16  86 SW13G18   29.55R WCI   7
CLOQUET        LGT SNOW  16   9  73 SW17G26   29.71R WCI   0
WHEATON        CLOUDY    14   9  79 W23G35    30.04R WCI  -5
BRAINERD       CLOUDY    13   8  81 W15G26    29.82R WCI  -3
6HR MIN TEMP:  13; 6HR MAX TEMP:  16; 6HR PCP: TRACE;

HIBBING        LGT SNOW  16  13  88 W8        29.64R FOG     WCI   5
6HR MIN TEMP:  16; 6HR MAX TEMP:  21; 6HR PCP:  0.01;

ALEXANDRIA     LGT SNOW  11   7  84 W23G33    29.94R FOG     WCI  -9
6HR MIN TEMP:  11; 6HR MAX TEMP:  13; 6HR PCP: TRACE;

SAINT CLOUD    FLURRIES  14   8  77 W24G33    29.92R WCI  -5
6HR MIN TEMP:  14; 6HR MAX TEMP:  17; 6HR PCP: TRACE;

MINNEAPOLIS    FLURRIES  17   9  70 W18       29.97R WCI   1
6HR MIN TEMP:  17; 6HR MAX TEMP:  18; 6HR PCP: TRACE;

$$

  *****  WEATHER ACROSS SOUTH DAKOTA  *****

CITY           SKY/WX    TMP DP  RH WIND       PRES   REMARKS
SIOUX FALLS    CLEAR      9   3  77 W20G29    30.15R WCI -10
6HR MIN TEMP:   9; 6HR MAX TEMP:  12;

BROOKINGS      CLEAR      6   1  80 NW24G31   30.07R WCI -16
WATERTOWN      MOCLDY     5   0  79 W22G31    30.06R WCI -16
6HR MIN TEMP:   6; 6HR MAX TEMP:   8;

HURON          MOCLDY     8   2  76 NW14      30.19R WCI  -8
6HR MIN TEMP:   7; 6HR MAX TEMP:   9;

SISSETON         N/A     12   5  73 NW22G31   30.02R WCI  -7
ABERDEEN       CLOUDY     8   0  69 W22G32    30.13R WCI -12
6HR MIN TEMP:   8; 6HR MAX TEMP:  11;

MITCHELL       CLEAR     10   3  73 W16G24    30.22R WCI  -7
PIERRE         CLOUDY     7   1  76 W22G29    30.21R WCI -14
6HR MIN TEMP:   7; 6HR MAX TEMP:  10;

MOBRIDGE       CLOUDY     8  -1  66 NW22G37   30.17R WCI -12
RAPID CITY     CLOUDY     4  -4  69 N16       30.20R WCI -15
6HR MIN TEMP:   2; 6HR MAX TEMP:   5;

$$

  *****  SOME WEATHER IN NEARBY STATES *****

CITY           SKY/WX    TMP DP  RH WIND       PRES   REMARKS
GLASGOW MT     CLEAR     -1  -9  68 NW28G36   30.38R WCI -26
6HR MIN TEMP:  -1; 6HR MAX TEMP:   3;

GREAT FALLS MT CLOUDY    -3  -8  79 W5        30.39R WCI -13
6HR MIN TEMP:  -3; 6HR MAX TEMP:  -2;

CHEYENNE WY    LGT SNOW   1  -5  75 N12G22    29.98R WCI -16
6HR MIN TEMP:   1; 6HR MAX TEMP:  12; 6HR PCP:  0.05;

SCOTTSBLUFF NE LGT SNOW  10   4  76 N8        30.17R WCI  -2
6HR MIN TEMP:   9; 6HR MAX TEMP:  16; 6HR PCP:  0.03;

OMAHA NE       CLOUDY    17   7  64 NW12      30.23R WCI   4
6HR MIN TEMP:  17; 6HR MAX TEMP:  22;

DES MOINES IA  MOCLDY    20  10  65 NW14      30.17R WCI   7
6HR MIN TEMP:  20; 6HR MAX TEMP:  24;

DAVENPORT IA   CLOUDY    22  16  78 W16       30.11R WCI   8
6HR MIN TEMP:  22; 6HR MAX TEMP:  26;

CHICAGO IL     CLOUDY    25  17  72 W12       30.03S WCI  14
6HR MIN TEMP:  25; 6HR MAX TEMP:  26;

EAU CLAIRE WI  FLURRIES  17  10  74 W18G26    29.91R WCI   1
6HR MIN TEMP:  17; 6HR MAX TEMP:  18; 6HR PCP: TRACE;

LA CROSSE WI   CLOUDY    19  11  70 W12       30.03R WCI   7
6HR MIN TEMP:  19; 6HR MAX TEMP:  23; 6HR PCP: TRACE;

$$

  *****  SOME NATIONAL WEATHER *****

CITY           SKY/WX    TMP DP  RH WIND       PRES   REMARKS
LA GUARDIA NY  CLOUDY    41  37  86 NE12      29.94R
6HR MIN TEMP:  41; 6HR MAX TEMP:  43; 6HR PCP:  0.06;

RALEIGH NC     PTCLDY    38  36  92 CALM      30.01R
6HR MIN TEMP:  37; 6HR MAX TEMP:  44;

ATLANTA GA     CLEAR     45  42  89 NW8       30.01R
6HR MIN TEMP:  45; 6HR MAX TEMP:  53;

NEW ORLEANS LA CLOUDY    56  55  97 E3        30.06R
6HR MIN TEMP:  55; 6HR MAX TEMP:  57;

OKLAHOMA CITY  CLOUDY    33  19  56 E14       30.07R WCI  23
6HR MIN TEMP:  30; 6HR MAX TEMP:  35;

ALBUQUERQUE NM PTCLDY    39  21  48 SW12      29.92R
6HR MIN TEMP:  31; 6HR MAX TEMP:  41;

SALT LAKE CITY CLOUDY    24  14  65 NW6       30.11R WCI  17
6HR MIN TEMP:  24; 6HR MAX TEMP:  27; 6HR PCP: TRACE;

LOS ANGELES CA MOCLDY    53  46  77 CALM      30.03S
6HR MIN TEMP:  52; 6HR MC1F1C2F2C3F3C4F4C5F5C6F6C7F7C8F8C9F9CaFaCbFbCcFcCd!


USA.gov is the U.S. government's official web portal to all federal, state and local government web resources and services.